Wind_Speed
15 16 17 18 18 18 19 20 21 22 23 23 23 24 24 24 22 18 11 18 11 17 12 9 11 11 10 4 3 4 2 6 7 7 8 1 3 2 1 4 2 6 5 7 5
19 19 19 19 19 19 20 20 20 20 21 21 21 21 23 23 22 14 34 25 23 19 15 15 8 12 4 6 4 5 6 11 11 8 6 4 2 5 4 9 6 7 8 10 10
18 18 19 19 19 20 20 21 21 20 18 19 21 21 21 19 6 9 12 9 21 30 22 16 17 9 6 4 7 7 14 19 14 13 2 5 8 1 6 15 14 8 11 5 8
20 19 19 20 21 21 21 20 20 20 20 19 19 19 21 4 8 3 14 16 5 20 19 15 8 9 7 11 7 4 12 19 17 9 5 6 4 13 11 17 18 14 10 5 9
20 20 20 21 21 21 21 20 20 19 19 18 17 15 10 4 9 10 12 20 12 10 15 10 12 8 9 7 10 9 10 9 10 10 11 7 11 18 19 23 12 12 9 12 11
22 22 22 22 22 22 24 25 25 23 19 17 15 12 7 17 11 22 26 21 11 8 8 9 9 6 6 7 8 6 14 17 10 20 18 16 15 11 26 17 12 11 14 10 12
22 23 23 24 23 24 24 25 26 25 23 18 14 12 14 25 17 12 16 18 6 16 7 20 17 8 6 3 6 5 7 8 11 16 8 10 14 21 28 6 11 13 13 11 13
24 25 25 24 24 24 25 26 28 30 24 18 12 12 12 11 19 26 28 37 30 16 13 18 23 6 3 2 3 2 2 3 7 5 6 11 14 23 17 8 17 14 12 11 13
24 25 27 26 25 25 27 28 31 26 17 12 7 7 12 12 11 28 33 19 16 22 21 10 9 7 4 8 7 3 9 10 8 7 4 8 12 15 5 4 11 11 12 11 13
24 26 26 24 24 24 28 32 17 5 6 4 7 4 7 5 14 13 15 29 8 5 4 6 5 6 5 7 16 5 5 6 10 2 4 10 15 18 24 9 12 10 11 11 11
25 25 25 24 23 22 25 13 5 2 2 5 6 10 17 12 18 5 5 12 8 5 10 7 8 20 22 13 6 7 14 13 3 4 7 10 10 14 17 7 10 15 16 14 13
26 25 23 23 23 23 17 1 3 4 10 11 20 23 35 25 12 15 12 8 10 18 13 6 27 20 11 14 14 9 12 17 12 4 7 10 13 15 17 16 10 16 19 15 6
27 25 23 23 25 7 6 8 4 14 5 9 12 9 10 16 17 26 8 6 6 14 24 26 19 12 15 9 13 13 18 17 11 6 6 7 13 12 14 9 7 10 12 9 10
26 24 23 22 6 9 9 2 16 6 4 8 3 6 5 7 9 31 11 8 7 19 18 17 24 18 10 18 15 18 15 15 12 5 8 5 6 9 9 17 9 11 9 9 9
24 24 22 14 12 5 5 12 17 3 5 3 3 5 4 7 8 9 35 8 10 10 10 13 18 20 23 24 20 13 7 7 7 7 2 5 5 6 5 10 14 11 11 10 7
25 25 19 14 6 14 10 16 2 2 7 5 5 11 11 7 13 8 9 19 5 6 9 15 6 19 12 9 13 4 3 4 4 1 10 13 7 5 6 12 6 6 7 7 5
28 26 17 11 4 3 12 2 2 4 6 2 7 14 20 12 7 6 11 17 12 13 13 5 9 3 7 13 5 7 7 2 4 1 6 6 6 15 11 10 9 12 10 2 3
30 22 12 7 8 3 3 2 5 3 6 12 14 15 11 14 9 20 7 14 22 2 11 9 6 15 7 10 13 15 9 6 6 3 5 5 7 9 13 14 10 11 5 8 7
27 14 6 9 3 8 3 2 4 2 4 10 12 8 7 12 5 12 7 3 8 22 5 10 8 4 15 7 18 11 10 12 1 2 1 4 8 8 6 9 5 0 4 7 7
16 8 7 12 4 4 1 3 3 5 8 7 5 5 7 11 8 12 6 12 11 8 15 3 3 7 14 9 19 9 11 7 6 6 3 5 5 6 2 6 3 6 8 7 7
5 3 7 9 8 2 1 3 4 8 7 3 3 4 8 12 6 3 8 8 22 23 10 1 4 3 10 16 17 5 7 3 8 5 5 1 6 8 9 9 9 9 8 9 13
4 3 2 9 2 1 3 3 8 7 6 6 5 9 8 9 4 1 5 9 22 19 11 3 1 4 12 8 21 22 16 8 7 4 4 3 6 3 9 7 7 7 7 6 6
4 3 3 1 2 2 4 4 4 5 5 4 5 3 7 7 6 5 3 4 11 15 14 7 4 2 5 2 2 22 17 16 5 3 14 8 6 3 5 6 5 8 9 8 7
2 4 3 3 1 3 6 6 4 6 8 4 4 6 5 6 7 4 7 2 7 15 16 7 3 5 9 5 5 5 15 19 11 4 3 10 2 5 4 7 5 8 7 9 8
3 2 1 4 3 8 5 3 5 4 4 6 3 4 4 4 6 1 5 3 5 9 11 2 3 5 10 12 3 6 12 19 17 23 12 4 8 6 8 8 6 8 9 11 11
2 2 3 5 7 8 4 3 4 5 4 5 3 11 7 5 6 7 8 4 1 3 5 3 3 6 4 8 14 10 7 16 22 20 16 4 10 9 1 7 6 10 12 12 12
3 4 2 4 4 2 2 4 8 11 8 7 9 13 10 11 3 9 8 7 5 3 4 4 4 6 4 7 4 7 15 8 9 13 18 12 24 4 4 7 9 10 13 14 14
Wind_Direction
342 340 336 333 332 326 320 321 326 329 330 332 336 333 331 327 311 300 249 245 261 235 236 154 167 172 191 188 150 117 157 242 240 186 241 140 331 295 334 241 261 209 231 248 290
349 343 338 336 335 329 327 325 323 322 322 325 327 327 327 333 321 258 262 259 254 240 213 157 154 155 179 190 190 168 197 227 220 216 246 298 120 322 336 300 255 264 264 264 193
349 346 345 340 331 329 328 326 323 321 318 318 322 327 326 336 313 253 290 252 241 237 222 189 167 151 168 165 200 201 225 229 261 244 227 276 309 242 273 285 279 263 278 254 181
346 342 342 338 338 334 329 324 324 320 316 316 322 325 324 333 240 142 76 30 348 210 188 178 148 153 198 199 191 212 231 236 251 260 268 253 286 282 281 263 266 276 253 220 194
341 340 339 335 331 328 325 323 317 316 319 316 314 320 335 273 244 214 259 309 12 150 194 192 163 150 187 208 214 237 241 242 249 268 260 265 256 264 276 273 272 266 268 233 218
342 339 335 330 327 326 322 322 321 321 311 308 304 304 264 252 253 260 275 298 289 245 203 217 198 184 195 223 182 196 234 253 264 258 259 269 277 279 268 272 272 271 269 248 215
339 338 335 333 328 322 319 316 315 312 311 301 301 290 258 248 255 248 283 279 300 244 199 213 242 190 172 306 219 223 238 260 251 256 247 256 274 258 266 283 264 267 267 261 227
338 337 334 330 326 325 318 315 310 308 301 293 294 288 258 289 273 269 254 266 265 248 249 230 222 238 197 288 4 190 208 239 256 220 252 162 259 270 270 259 264 265 267 253 245
336 335 333 332 330 327 323 317 313 308 291 267 269 226 271 266 258 257 246 232 253 238 244 255 195 197 139 226 283 246 249 254 289 232 232 177 270 272 270 219 268 268 261 260 260
333 333 332 330 329 331 325 323 326 29 79 147 237 318 259 239 318 256 253 212 212 152 141 201 206 187 184 175 215 194 242 238 234 262 216 256 256 274 279 235 257 269 266 255 251
331 330 328 328 328 328 326 340 16 355 38 215 201 248 298 302 340 287 192 171 198 167 174 187 200 215 206 204 202 207 231 246 250 207 244 245 264 266 279 259 272 278 279 277 263
332 330 327 326 326 322 316 26 21 0 297 254 250 247 250 263 290 293 197 149 187 198 165 179 227 217 186 200 208 210 237 252 267 229 237 271 273 272 275 275 249 268 273 271 250
332 331 330 328 325 334 332 281 330 353 266 281 232 237 231 223 226 260 238 176 182 186 189 202 220 197 192 187 201 215 224 241 247 313 253 310 289 271 279 276 262 252 246 266 234
328 327 331 328 329 330 294 17 330 333 301 273 217 251 199 222 245 232 220 196 193 195 195 229 222 192 183 207 188 221 218 241 262 273 267 143 281 302 300 299 284 281 293 272 246
328 327 324 321 292 280 292 325 331 160 314 239 199 163 264 187 307 232 206 254 203 167 165 209 179 203 204 207 199 232 204 217 231 229 229 255 277 270 272 281 282 275 267 261 238
329 326 322 315 265 268 291 322 115 108 246 300 28 344 334 244 255 281 164 222 191 182 235 215 203 200 185 184 205 136 219 30 33 54 258 263 207 225 228 239 260 263 267 296 144
330 327 307 268 239 183 313 348 109 206 333 7 346 333 319 341 313 191 224 196 190 188 204 158 222 167 154 212 167 141 99 284 332 297 235 197 185 250 254 231 226 258 273 93 208
332 330 327 291 282 268 297 72 217 257 251 349 340 319 330 17 335 335 219 221 228 150 172 176 205 196 171 182 193 196 168 154 203 226 256 164 206 248 226 233 237 248 221 147 169
336 334 339 353 324 172 89 191 229 283 17 337 336 324 339 354 349 346 318 358 222 235 208 189 235 179 190 161 178 199 191 181 354 180 323 228 281 309 229 260 267 216 159 160 161
331 327 334 338 141 165 184 240 273 338 329 322 303 319 327 332 353 350 307 10 351 333 229 220 168 191 210 187 190 158 142 180 202 204 225 268 269 234 249 246 290 228 202 164 146
344 17 21 49 10 60 314 267 296 288 320 303 293 289 297 307 328 23 289 25 7 346 329 268 156 274 144 198 185 165 174 157 170 167 170 279 262 215 229 232 234 224 177 179 157
358 13 341 324 32 14 311 310 314 293 299 264 263 252 258 319 313 244 268 325 343 342 334 311 305 220 211 163 195 199 193 156 192 195 212 166 267 217 231 256 233 227 152 139 163
341 297 329 351 34 338 300 286 264 296 284 317 304 299 311 293 304 218 276 348 327 323 343 341 277 162 15 313 175 201 207 208 115 106 206 213 255 308 323 303 256 188 144 137 150
352 338 323 29 178 300 326 301 297 282 281 269 264 286 325 312 304 274 264 289 343 330 331 355 278 263 205 196 140 148 201 206 197 204 203 223 305 285 276 256 230 140 136 138 145
24 299 296 315 316 315 304 290 295 317 319 301 301 12 335 311 304 314 14 326 11 349 334 24 277 318 300 290 269 162 180 199 202 215 212 221 242 250 250 239 223 138 129 142 151
8 334 325 288 278 321 329 273 325 338 300 305 289 312 315 288 282 294 336 28 129 344 309 311 293 346 290 262 275 265 253 211 199 209 231 250 254 228 251 120 172 154 156 164 172
296 279 266 276 298 295 272 304 307 312 276 232 305 314 306 288 319 287 253 226 220 272 332 309 352 356 304 339 256 260 235 208 207 224 204 195 236 140 193 213 182 166 173 175 179
Height
817 815 812 809 806 804 803 802 799 797 794 791 788 788 786 786 780 780 775 766 767 769 770 769 773 778 785 785 784 788 813 818 802 797 777 760 763 755 748 754 749 746 745 737 737
813 810 808 806 802 804 801 799 797 795 794 791 790 788 788 782 776 772 759 762 762 765 769 766 772 777 786 785 785 793 808 799 771 768 768 762 764 762 758 755 752 746 736 735 737
815 813 811 807 805 801 799 796 794 793 793 790 787 785 786 781 777 757 750 754 755 759 762 763 766 773 783 783 781 783 785 768 763 759 762 761 760 756 758 759 747 749 738 733 734
812 810 808 805 802 799 796 794 792 791 789 784 783 784 784 782 782 751 752 754 750 753 756 760 764 775 783 781 772 783 771 764 755 757 761 763 756 755 754 747 735 734 731 730 732
811 808 805 802 800 798 796 794 793 789 785 782 783 785 782 781 764 750 749 751 754 753 756 756 757 762 778 771 769 774 765 758 759 759 753 754 757 752 747 730 730 727 727 726 725
810 807 804 801 797 794 791 788 786 784 783 784 783 783 783 772 754 750 747 748 750 752 755 755 749 749 758 761 765 758 761 758 757 754 747 753 750 747 728 724 726 724 722 719 719
809 805 802 798 794 791 788 785 782 780 778 778 780 779 770 744 747 745 745 745 746 747 748 749 748 751 753 759 751 753 765 761 755 744 746 744 753 742 718 725 727 721 716 713 711
806 803 800 796 793 789 785 781 777 773 772 772 774 774 755 745 744 740 739 737 740 745 746 748 749 750 752 750 753 756 759 770 745 739 740 746 751 722 717 723 720 716 712 710 705
804 801 797 793 789 785 781 776 770 766 766 769 773 774 754 741 737 729 733 733 733 739 743 746 746 750 750 762 771 766 767 766 758 735 740 743 742 719 716 718 718 712 708 705 701
803 799 796 791 787 782 776 770 764 763 764 768 771 773 750 736 733 724 720 724 730 734 742 746 748 752 755 760 757 767 770 764 753 736 738 742 740 723 711 716 714 708 705 702 696
801 797 793 789 785 782 776 770 769 767 765 765 763 758 742 733 727 721 719 723 729 732 742 742 750 735 737 742 745 750 754 752 742 734 742 740 738 729 714 714 711 703 697 691 687
799 794 790 786 782 780 777 776 774 779 768 758 751 746 740 736 736 724 721 723 726 726 729 740 724 721 727 734 740 746 753 750 740 735 739 737 734 721 712 703 703 697 690 684 684
796 791 787 783 779 777 777 776 775 773 770 748 732 730 729 726 730 714 721 710 716 722 714 716 701 715 723 733 741 744 747 743 749 736 732 734 736 724 704 700 694 690 686 680 679
793 789 785 782 780 777 775 774 773 772 769 742 730 722 719 721 714 704 703 705 706 710 713 713 708 712 722 727 730 744 728 734 741 748 760 736 765 732 715 700 692 684 678 675 674
790 786 783 781 780 778 774 772 770 771 775 722 718 714 713 716 705 687 693 698 698 700 707 700 703 712 714 706 715 723 718 728 733 744 748 743 759 727 714 709 692 681 673 670 670
788 783 779 777 776 773 773 770 770 776 762 724 717 720 715 710 702 690 689 696 687 696 692 691 684 693 698 702 708 709 721 728 737 748 757 740 752 732 719 696 686 674 669 668 673
784 778 775 775 772 771 771 769 777 774 730 726 729 723 712 709 693 689 695 696 689 700 700 695 696 687 690 710 706 715 739 768 775 776 762 727 744 708 692 685 677 671 667 671 680
779 774 770 770 769 770 770 772 774 745 737 729 730 721 712 712 709 700 690 695 687 682 691 703 712 692 683 693 704 711 726 757 765 764 742 722 734 692 675 669 667 665 665 676 684
776 771 769 768 766 768 773 773 763 746 742 741 731 722 717 717 724 718 702 690 686 683 687 693 696 671 672 674 687 706 725 714 735 730 742 730 702 675 664 663 658 661 671 677 684
776 773 770 767 767 767 768 767 760 747 743 740 745 731 732 721 722 736 710 701 699 692 674 674 693 670 672 674 675 690 697 728 732 749 746 725 715 701 669 665 660 668 673 680 684
777 776 772 770 769 768 769 766 758 747 745 745 740 740 731 724 721 733 726 707 714 698 683 671 679 673 672 671 682 694 704 709 713 734 741 746 718 680 668 661 662 662 668 678 678
782 783 773 771 772 776 774 764 756 749 744 743 739 738 732 722 725 735 729 732 732 718 706 696 688 685 674 659 658 666 678 697 706 726 720 723 714 659 660 658 660 662 667 677 680
786 783 773 771 777 777 770 766 758 752 745 742 740 733 730 726 728 720 726 727 732 723 713 703 696 692 683 668 664 669 671 677 699 712 713 716 706 659 658 658 658 664 669 677 681
789 788 781 777 779 777 772 766 762 749 745 741 739 733 730 725 721 721 720 720 725 717 710 706 704 688 670 663 665 674 671 673 689 711 707 687 680 663 655 660 660 664 671 676 681
793 792 787 780 783 775 777 774 764 757 749 743 739 737 738 734 729 724 721 718 719 719 717 716 714 691 679 664 659 659 664 671 680 676 694 680 683 670 658 659 660 663 671 675 680
796 791 788 781 774 771 773 768 763 757 754 746 743 738 738 735 733 732 724 721 723 719 718 717 711 701 685 665 659 665 661 662 661 669 676 672 673 652 650 656 661 660 666 671 675
793 790 788 779 779 776 770 767 762 760 747 744 743 743 739 728 723 721 720 716 721 721 718 721 713 708 698 684 665 674 655 660 661 658 658 677 644 652 653 655 654 657 659 663 668